VA2CPJ Weather Reports


time (UTC)temp
C
wind
direction
speed
KPH
gust
KPH
rain 1hr
cm
rain 24hr
cm
rain mn
cm
humidity
%
barometer
mb
20260506092022 10 287 9.7 20.9 0.00 0.00 0.00 88 1016.4
20260506091532 10 243 9.7 17.7 0.00 0.00 0.00 88 1017.4
20260506091523 10 237 11.3 17.7 0.00 0.00 0.00 88 1017.4
20260506091034 10 260 11.3 16.1 0.00 0.00 0.00 88 1016.4
20260506090632 10 279 9.7 14.5 0.00 0.00 0.00 89 1017.4
20260506090528 10 271 9.7 14.5 0.00 0.00 0.00 89 1017.4
20260506090031 10 262 11.3 16.1 0.00 0.00 0.00 89 1016.4
20260506085613 10 253 11.3 19.3 0.00 0.00 0.00 89 1017.1
20260506085533 10 264 9.7 19.3 0.00 0.00 0.00 89 1017.4
20260506085036 10 287 9.7 12.9 0.00 0.00 0.00 88 1016.4
20260506084549 10 277 11.3 16.1 0.00 0.00 0.00 88 1017.1
20260506084521 10 275 12.9 17.7 0.00 0.00 0.00 88 1017.1
20260506084050 10 277 11.3 22.5 0.00 0.00 0.00 87 1016.0
20260506083552 10 270 16.1 29.0 0.00 0.00 0.00 87 1016.7
20260506083526 10 264 16.1 29.0 0.00 0.00 0.00 87 1017.1
20260506083020 10 273 14.5 20.9 0.00 0.00 0.00 87 1016.0
20260506082531 10 255 16.1 25.7 0.00 0.00 0.00 87 1016.7
20260506082522 10 261 16.1 27.4 0.00 0.00 0.00 87 1016.7
20260506082214 10 267 12.9 19.3 0.00 0.00 0.00 88 1016.0
20260506081528 10 277 8.0 14.5 0.00 0.00 0.00 88 1016.7
20260506081030 10 272 14.5 32.2 0.00 0.00 0.00 88 1015.7
20260506080552 10 266 12.9 20.9 0.00 0.00 0.00 88 1016.7
20260506080523 10 268 11.3 20.9 0.00 0.00 0.00 88 1016.7
20260506073521 10 256 14.5 24.1 0.00 0.00 0.00 89 1016.4
20260506073043 10 261 14.5 19.3 0.00 0.00 0.00 89 1015.4
20260506072645 10 228 14.5 22.5 0.00 0.00 0.00 88 1016.0
20260506072543 10 237 14.5 20.9 0.00 0.00 0.00 88 1016.4
20260506072019 10 245 12.9 20.9 0.00 0.00 0.00 89 1015.4
20260506071602 10 242 11.3 16.1 0.00 0.00 0.00 88 1016.4
20260506071530 10 233 11.3 16.1 0.00 0.00 0.00 88 1016.0
20260506071042 10 255 11.3 19.3 0.00 0.00 0.00 88 1015.4
20260506070545 11 264 12.9 20.9 0.00 0.00 0.00 88 1016.0
20260506070518 11 271 11.3 17.7 0.00 0.00 0.00 88 1016.0
20260506062043 11 235 16.1 24.1 0.00 0.00 0.00 86 1014.7
20260506061543 11 252 11.3 19.3 0.00 0.00 0.00 85 1015.4
20260506061526 11 258 9.7 14.5 0.00 0.00 0.00 85 1015.7
20260506061020 11 248 11.3 22.5 0.00 0.00 0.00 84 1014.7
20260506060621 11 249 12.9 25.7 0.00 0.00 0.00 83 1015.4
20260506060548 11 251 14.5 24.1 0.00 0.00 0.00 83 1015.7
20260506060117 11 247 12.9 22.5 0.00 0.00 0.00 83 1014.3
20260506051024 11 261 11.3 16.1 0.00 0.00 0.00 88 1014.0
20260506050546 11 264 9.7 14.5 0.00 0.00 0.00 89 1015.0
20260506050535 11 277 12.9 22.5 0.00 0.00 0.00 89 1015.0
20260506045033 11 260 9.7 16.1 0.00 0.00 0.00 88 1014.0
20260506044547 11 261 9.7 17.7 0.00 0.00 0.00 89 1014.7
20260506044535 11 279 9.7 16.1 0.00 0.00 0.00 89 1014.7
20260506044029 11 247 11.3 16.1 0.00 0.00 0.00 89 1013.7
20260506043553 11 246 8.0 16.1 0.00 0.00 0.00 89 1014.3
20260506043523 11 242 8.0 16.1 0.00 0.00 0.00 89 1014.3
20260506043034 11 270 9.7 14.5 0.00 0.00 0.00 89 1013.7
20260506042555 11 287 8.0 12.9 0.00 0.00 0.00 89 1014.7
20260506042519 11 287 8.0 12.9 0.00 0.00 0.00 89 1014.7
20260506042031 11 270 8.0 12.9 0.00 0.00 0.00 90 1013.7
20260506041559 11 234 6.4 9.7 0.00 0.00 0.00 90 1014.3
20260506041534 11 252 8.0 12.9 0.00 0.00 0.00 90 1014.3
20260506041038 11 257 8.0 9.7 0.00 0.00 0.00 91 1013.3
20260506040538 11 253 6.4 11.3 0.00 0.00 0.00 92 1014.0
20260506040521 11 244 6.4 11.3 0.00 0.00 0.00 92 1014.0
20260506040024 11 231 6.4 9.7 0.00 0.00 0.00 92 1013.0
20260506035603 11 243 6.4 9.7 0.00 0.00 0.00 92 1014.0
20260506035543 11 243 6.4 12.9 0.00 0.00 0.00 92 1014.3
20260506035019 11 280 6.4 16.1 0.00 0.00 0.00 92 1013.3
20260506034658 12 262 9.7 14.5 0.00 0.00 0.00 92 1014.0
20260506034539 12 257 9.7 14.5 0.00 0.00 0.00 92 1014.3
20260506034033 12 258 6.4 14.5 0.00 0.00 0.00 92 1013.3
20260506033636 12 260 8.0 12.9 0.00 0.00 0.00 92 1014.0
20260506033518 12 245 8.0 9.7 0.00 0.00 0.00 92 1014.0
20260506033030 12 284 11.3 16.1 0.00 0.00 0.00 93 1013.0
20260506032524 12 301 9.7 17.7 0.00 0.00 0.00 93 1013.7
20260506032037 12 288 6.4 9.7 0.00 0.00 0.00 94 1012.6
20260506031539 12 252 4.8 8.0 0.00 0.00 0.00 93 1013.3
20260506031528 12 248 6.4 9.7 0.00 0.00 0.00 93 1013.7
20260506031031 12 241 8.0 16.1 0.00 0.00 0.00 93 1012.6
20260506030603 12 263 8.0 12.9 0.00 0.00 0.00 92 1013.3
20260506030601 12 261 8.0 12.9 0.00 0.00 0.00 92 1013.3
20260506030047 13 254 8.0 14.5 0.00 0.00 0.00 92 1012.3
20260506025651 13 265 11.3 16.1 0.00 0.00 0.00 92 1013.0
20260506025521 13 271 12.9 19.3 0.00 0.00 0.00 92 1013.3
20260506025028 13 261 9.7 14.5 0.00 0.00 0.00 93 1012.3
20260506024546 13 267 11.3 14.5 0.00 0.00 0.00 93 1013.0
20260506024525 13 268 8.0 14.5 0.00 0.00 0.00 93 1013.0
20260506024020 13 250 11.3 16.1 0.00 0.00 0.00 94 1011.9
20260506023557 13 259 9.7 14.5 0.00 0.00 0.00 96 1012.6
20260506023522 13 255 9.7 16.1 0.00 0.00 0.00 95 1013.0
20260506023033 13 251 9.7 19.3 0.00 0.00 0.00 96 1011.9
20260506022536 13 250 6.4 9.7 0.00 0.00 0.00 97 1013.0
20260506022518 13 253 4.8 8.0 0.00 0.00 0.00 97 1012.6
20260506022047 13 239 4.8 8.0 0.00 0.00 0.00 97 1011.6
20260506021607 12 239 4.8 8.0 0.00 0.00 0.00 97 1012.3
20260506021532 12 231 4.8 8.0 0.00 0.00 0.00 97 1012.6
20260506021055 12 244 6.4 11.3 0.00 0.00 0.00 97 1011.6
20260506020546 12 260 6.4 9.7 0.00 0.00 0.00 97 1012.6
20260506020519 12 258 6.4 6.4 0.00 0.00 0.00 97 1012.6
20260506020048 12 236 4.8 11.3 0.00 0.00 0.00 97 1011.6
20260506015551 12 256 4.8 8.0 0.00 0.00 0.00 97 1012.6
20260506015545 12 249 4.8 9.7 0.00 0.00 0.00 97 1012.3
20260506015024 12 286 4.8 11.3 0.00 0.00 0.00 97 1011.9
20260506014541 13 281 8.0 16.1 0.00 0.00 0.00 97 1013.0
20260506014538 13 276 8.0 16.1 0.00 0.00 0.00 97 1012.6
20260506014024 13 255 8.0 14.5 0.00 0.00 0.00 97 1011.9
20260506013601 13 264 9.7 11.3 0.00 0.00 0.00 97 1012.6
20260506013543 13 254 9.7 17.7 0.00 0.00 0.00 97 1013.0
20260506013048 13 264 9.7 19.3 0.00 0.00 0.00 97 1011.9
20260506012751 13 280 9.7 14.5 0.00 0.00 0.00 97 1012.6
20260506012540 13 271 9.7 14.5 0.00 0.00 0.00 97 1012.6
20260506012033 13 263 9.7 16.1 0.00 0.00 0.00 96 1011.6
20260506011620 13 256 9.7 14.5 0.00 0.00 0.00 96 1012.3
20260506011538 13 274 8.0 14.5 0.00 0.00 0.00 96 1012.3
20260506011029 13 259 8.0 12.9 0.00 0.00 0.00 96 1011.3
20260506010540 13 289 9.7 19.3 0.00 0.00 0.00 96 1011.9
20260506010532 13 292 9.7 19.3 0.00 0.00 0.00 96 1011.9
20260506010026 13 254 9.7 14.5 0.00 0.00 0.00 95 1011.3
20260506005722 13 284 6.4 9.7 0.00 0.00 0.00 95 1012.3
20260506005520 13 285 6.4 11.3 0.00 0.00 0.00 95 1012.3
20260506005023 13 273 8.0 12.9 0.00 0.00 0.00 94 1011.3
20260506004634 13 271 3.2 8.0 0.00 0.00 0.00 94 1011.6
20260506004533 13 262 3.2 8.0 0.00 0.00 0.00 94 1011.9
20260506004116 13 241 4.8 8.0 0.00 0.00 0.00 94 1010.9
20260506003521 13 237 6.4 9.7 0.00 0.00 0.00 94 1011.6
20260506003023 13 242 4.8 9.7 0.00 0.00 0.00 94 1010.6
20260506002601 13 272 6.4 8.0 0.00 0.00 0.00 94 1011.3
20260506002526 13 269 6.4 9.7 0.00 0.00 0.00 94 1011.3
20260506002019 13 250 6.4 12.9 0.00 0.00 0.00 94 1010.2
20260506001531 13 276 6.4 11.3 0.00 0.00 0.00 94 1011.3
20260506001033 13 290 8.0 14.5 0.00 0.00 0.00 94 1010.2
20260506000804 13 243 6.4 12.9 0.00 0.00 0.00 94 1010.9
20260506000518 13 246 6.4 12.9 0.00 0.00 0.00 94 1011.3
20260506000041 13 257 8.0 11.3 0.00 0.00 0.00 93 1010.2
20260505235553 13 276 8.0 14.5 0.00 0.00 0.00 93 1011.3
20260505235034 13 295 6.4 8.0 0.00 0.00 0.00 93 1010.2
20260505234540 13 297 9.7 14.5 0.00 0.00 0.00 93 1010.9
20260505234031 14 305 9.7 16.1 0.00 0.00 0.00 92 1009.9
20260505233533 14 297 6.4 11.3 0.00 0.00 0.00 92 1010.9
20260505233525 14 288 6.4 9.7 0.00 0.00 0.00 92 1010.6
20260505233035 14 281 6.4 9.7 0.00 0.00 0.00 92 1009.9
20260505232543 14 240 8.0 12.9 0.00 0.00 0.00 92 1010.6
20260505232529 14 242 8.0 12.9 0.00 0.00 0.00 92 1010.2
20260505232043 14 226 8.0 12.9 0.00 0.00 0.00 92 1009.6
20260505231535 14 260 8.0 14.5 0.00 0.00 0.00 92 1010.2
20260505231028 14 248 9.7 19.3 0.00 0.00 0.00 92 1009.6
20260505230548 14 271 11.3 19.3 0.00 0.00 0.00 92 1010.2
20260505230522 14 273 9.7 14.5 0.00 0.00 0.00 92 1010.2
20260505230030 14 265 11.3 19.3 0.00 0.00 0.00 92 1009.2
20260505225712 14 246 6.4 11.3 0.00 0.00 0.00 92 1009.9
20260505225527 14 242 6.4 11.3 0.00 0.00 0.00 92 1010.2
20260505225020 15 223 9.7 16.1 0.00 0.00 0.00 91 1008.9
20260505224540 15 235 8.0 11.3 0.00 0.00 0.00 90 1009.9
20260505224532 15 226 9.7 19.3 0.00 0.00 0.00 90 1009.9
20260505224034 15 269 9.7 16.1 0.00 0.00 0.00 87 1008.9
20260505223545 15 263 11.3 17.7 0.00 0.00 0.00 87 1009.9
20260505223540 15 254 11.3 14.5 0.00 0.00 0.00 87 1009.6
20260505223042 15 241 12.9 20.9 0.00 0.00 0.00 86 1008.5
20260505222525 15 240 11.3 16.1 0.00 0.00 0.00 85 1009.6
20260505222104 15 243 9.7 14.5 0.00 0.00 0.00 84 1008.5
20260505221616 15 295 9.7 12.9 0.00 0.00 0.00 83 1009.2
20260505221521 15 281 11.3 20.9 0.00 0.00 0.00 83 1009.2
20260505221045 15 287 9.7 12.9 0.00 0.00 0.00 82 1008.2
20260505220614 16 279 11.3 16.1 0.00 0.00 0.00 81 1009.2
20260505220534 16 282 8.0 16.1 0.00 0.00 0.00 81 1008.9
20260505220020 16 287 11.3 17.7 0.00 0.00 0.00 81 1008.2
20260505215523 16 302 11.3 17.7 0.00 0.00 0.00 80 1008.9
20260505215025 16 299 14.5 24.1 0.00 0.00 0.00 80 1007.8
20260505214553 16 307 22.5 33.8 0.00 0.00 0.00 79 1008.5
20260505214527 16 307 17.7 29.0 0.00 0.00 0.00 79 1008.5
20260505214021 16 307 19.3 35.4 0.00 0.00 0.00 79 1007.5
20260505213558 16 308 22.5 30.6 0.00 0.00 0.00 78 1008.2
20260505213532 16 310 22.5 37.0 0.00 0.00 0.00 78 1008.2
20260505213034 16 309 22.5 51.5 0.00 0.00 0.00 79 1007.2
20260505212528 17 302 25.7 33.8 0.00 0.00 0.00 78 1007.8
20260505212520 17 302 27.4 35.4 0.00 0.00 0.00 78 1008.2
20260505212022 18 309 32.2 51.5 0.00 0.00 0.00 75 1007.2
20260505211545 21 282 25.7 35.4 0.00 0.00 0.00 61 1007.5
20260505211524 21 284 27.4 41.8 0.00 0.00 0.00 61 1007.8
20260505211044 21 281 35.4 49.9 0.00 0.00 0.00 60 1005.8
20260505210520 21 252 30.6 49.9 0.00 0.00 0.00 60 1006.8
20260505210032 21 260 29.0 43.5 0.00 0.00 0.00 61 1005.8
20260505205552 21 281 25.7 45.1 0.00 0.00 0.00 61 1006.5
20260505205019 21 261 29.0 41.8 0.00 0.00 0.00 62 1005.5
20260505204548 21 259 32.2 49.9 0.00 0.00 0.00 63 1006.5
20260505204522 21 253 29.0 49.9 0.00 0.00 0.00 63 1006.8
20260505204033 21 268 27.4 41.8 0.00 0.00 0.00 64 1005.5
20260505203716 21 271 25.7 35.4 0.00 0.00 0.00 65 1006.8
20260505203527 21 264 25.7 33.8 0.00 0.00 0.00 65 1006.5
20260505203020 20 251 22.5 35.4 0.00 0.00 0.00 67 1005.8
20260505202532 20 275 22.5 27.4 0.00 0.00 0.00 68 1006.8
20260505202523 20 266 29.0 37.0 0.00 0.00 0.00 68 1006.5
20260505202026 21 271 19.3 33.8 0.00 0.00 0.00 69 1005.8
20260505201554 20 266 17.7 22.5 0.00 0.00 0.00 70 1006.5
20260505201519 20 267 19.3 29.0 0.00 0.00 0.00 71 1006.8
20260505201022 20 274 19.3 32.2 0.00 0.00 0.00 72 1005.8
20260505200542 20 265 19.3 25.7 0.00 0.00 0.00 73 1006.8
20260505200524 20 272 17.7 27.4 0.00 0.00 0.00 73 1006.8
20260505200117 20 265 20.9 37.0 0.00 0.00 0.00 74 1005.8
20260505195602 19 277 20.9 33.8 0.00 0.00 0.00 75 1006.8
20260505195539 19 280 22.5 29.0 0.00 0.00 0.00 76 1006.8
20260505195032 19 263 17.7 30.6 0.00 0.00 0.00 77 1006.1
20260505194618 18 259 19.3 29.0 0.00 0.00 0.00 78 1007.2
20260505194552 18 257 19.3 25.7 0.00 0.00 0.00 78 1007.2
20260505194040 18 259 20.9 29.0 0.00 0.00 0.00 79 1006.5
20260505193522 18 273 17.7 29.0 0.00 0.00 0.00 80 1007.5
20260505193025 18 238 16.1 27.4 0.00 0.00 0.00 81 1006.5
20260505192628 18 268 16.1 24.1 0.00 0.00 0.00 82 1007.5
20260505192602 18 265 17.7 29.0 0.00 0.00 0.00 82 1007.5
20260505192041 17 267 16.1 24.1 0.00 0.00 0.00 84 1006.8
20260505191549 17 240 14.5 17.7 0.00 0.00 0.00 85 1007.5
20260505191523 17 244 11.3 19.3 0.00 0.00 0.00 85 1007.5
20260505191034 17 243 9.7 14.5 0.00 0.00 0.00 86 1006.8
20260505190621 17 242 8.0 8.0 0.00 0.00 0.00 87 1007.8
20260505190540 17 234 12.9 24.1 0.00 0.00 0.00 86 1008.2
20260505190043 17 249 11.3 19.3 0.00 0.00 0.00 87 1007.2
20260505185533 16 237 8.0 14.5 0.00 0.00 0.00 87 1008.2
20260505185524 16 212 8.0 8.0 0.00 0.00 0.00 87 1007.8
20260505185102 16 230 9.7 16.1 0.00 0.00 0.00 88 1007.2
20260505184538 16 249 4.8 8.0 0.00 0.00 0.00 91 1007.8
20260505184107 15 174 3.2 9.7 0.00 0.00 0.00 92 1007.2
20260505183526 15 196 3.2 8.0 0.00 0.00 0.00 92 1008.2
20260505183349 15 146 8.0 9.7 0.00 0.00 0.00 93 1008.2
20260505183028 15 160 3.2 9.7 0.00 0.00 0.00 93 1007.5
20260505182549 15 157 6.4 11.3 0.00 0.00 0.00 93 1008.2
20260505182025 15 175 4.8 8.0 0.00 0.00 0.00 94 1007.5
20260505181548 15 178 6.4 12.9 0.00 0.00 0.00 94 1008.5
20260505181021 14 169 4.8 8.0 0.00 0.00 0.00 93 1007.8
20260505180549 14 195 3.2 6.4 0.00 0.00 0.00 93 1008.9
20260505180103 14 218 1.6 4.8 0.00 0.00 0.00 93 1007.8
20260505175548 14 262 4.8 8.0 0.00 0.00 0.00 93 1008.9
20260505175537 14 277 4.8 4.8 0.00 0.00 0.00 93 1008.5
20260505175453 14 303 4.8 4.8 0.00 0.00 0.00 93 1008.5
20260505175025 13 313 6.4 9.7 0.00 0.00 0.00 94 1007.8
20260505174524 14 312 6.4 9.7 0.00 0.00 0.00 93 1008.9
20260505174047 14 323 6.4 9.7 0.00 0.00 0.00 93 1008.2
20260505173529 14 324 4.8 6.4 0.00 0.00 0.00 92 1008.9
20260505173521 14 331 6.4 11.3 0.00 0.00 0.00 92 1008.9
20260505173023 14 334 6.4 11.3 0.00 0.00 0.00 91 1007.8
20260505172644 14 339 3.2 6.4 0.00 0.00 0.00 91 1008.5
20260505172534 14 334 3.2 9.7 0.00 0.00 0.00 91 1008.9
20260505172106 15 344 3.2 8.0 0.00 0.00 0.00 90 1007.5
20260505171623 15 336 4.8 9.7 0.00 0.00 0.00 89 1008.5
20260505171530 15 335 3.2 4.8 0.00 0.00 0.00 88 1008.5
20260505171152 15 334 4.8 4.8 0.00 0.00 0.00 87 1008.5
20260505171033 15 344 3.2 4.8 0.00 0.00 0.00 87 1007.5
20260505170527 15 333 4.8 8.0 0.00 0.00 0.00 87 1008.5
20260505170020 15 338 3.2 6.4 0.00 0.00 0.00 87 1007.5
20260505165619 15 331 6.4 9.7 0.00 0.00 0.00 85 1008.5
20260505165532 15 324 4.8 9.7 0.00 0.00 0.00 86 1008.5
20260505165034 15 294 6.4 8.0 0.00 0.00 0.00 86 1007.5
20260505164528 15 298 8.0 14.5 0.00 0.00 0.00 85 1008.5
20260505164519 15 304 8.0 11.3 0.00 0.00 0.00 85 1008.9
20260505164022 15 294 8.0 12.9 0.00 0.00 0.00 83 1008.2
20260505163544 16 288 16.1 24.1 0.00 0.00 0.00 74 1008.9
20260505163533 16 272 12.9 24.1 0.00 0.00 0.00 76 1009.2
20260505163027 16 275 12.9 24.1 0.00 0.00 0.00 73 1008.2
20260505162605 17 262 16.1 20.9 0.00 0.00 0.00 73 1008.9
20260505162520 17 253 12.9 17.7 0.00 0.00 0.00 73 1008.9
20260505162023 17 245 14.5 24.1 0.00 0.00 0.00 73 1008.2
20260505161525 17 247 12.9 20.9 0.00 0.00 0.00 73 1009.2
20260505161112 17 240 9.7 16.1 0.00 0.00 0.00 74 1008.2
20260505160523 17 265 9.7 16.1 0.00 0.00 0.00 74 1009.2
20260505153031 18 234 22.5 35.4 0.00 0.00 0.00 69 1008.5
20260505152533 18 226 25.7 33.8 0.00 0.00 0.00 68 1009.2
20260505152057 18 243 24.1 35.4 0.00 0.00 0.00 66 1008.5
20260505151558 18 226 27.4 38.6 0.00 0.00 0.00 64 1009.2
20260505151521 18 232 24.1 48.3 0.00 0.00 0.00 64 1009.2
20260505151032 19 265 25.7 40.2 0.00 0.00 0.00 60 1008.5
20260505150552 18 271 25.7 41.8 0.00 0.00 0.00 59 1009.2
20260505150526 18 268 20.9 41.8 0.00 0.00 0.00 59 1009.6
20260505140529 17 29 1.6 6.4 0.00 0.00 0.00 60 1009.6
20260505140520 17 353 1.6 4.8 0.00 0.00 0.00 60 1009.6
20260505125024 13 73 3.2 8.0 0.00 0.00 0.00 67 1009.2
20260505124609 13 95 1.6 6.4 0.00 0.00 0.00 69 1009.9
20260505124534 13 100 3.2 6.4 0.00 0.00 0.00 69 1010.2
20260505124019 12 77 8.0 14.5 0.00 0.00 0.00 70 1009.2
20260505123623 12 89 6.4 8.0 0.00 0.00 0.00 71 1009.9
20260505123531 12 88 8.0 14.5 0.00 0.00 0.00 71 1010.2
20260505123024 12 91 8.0 12.9 0.00 0.00 0.00 72 1009.6
20260505122553 12 71 6.4 12.9 0.00 0.00 0.00 74 1010.2
20260505122518 12 75 6.4 11.3 0.00 0.00 0.00 74 1010.6
20260505122021 12 68 8.0 14.5 0.00 0.00 0.00 75 1009.6
20260505121532 11 68 8.0 9.7 0.00 0.00 0.00 75 1010.6
20260505121104 11 76 9.7 16.1 0.00 0.00 0.00 76 1009.6
20260505120603 11 91 11.3 12.9 0.00 0.00 0.00 76 1010.6
20260505120519 11 91 9.7 16.1 0.00 0.00 0.00 76 1010.6
20260505120022 11 62 8.0 11.3 0.00 0.00 0.00 78 1009.9
20260505115709 11 64 8.0 11.3 0.00 0.00 0.00 76 1010.6
20260505115542 11 67 8.0 12.9 0.00 0.00 0.00 77 1010.9
20260505115018 11 67 4.8 11.3 0.00 0.00 0.00 76 1009.9
20260505114648 11 76 9.7 12.9 0.00 0.00 0.00 75 1010.6
20260505114521 11 74 8.0 12.9 0.00 0.00 0.00 75 1010.9
20260505114033 12 79 8.0 8.0 0.00 0.00 0.00 74 1009.9
20260505113543 11 56 3.2 6.4 0.00 0.00 0.00 76 1010.6
20260505113525 11 65 3.2 6.4 0.00 0.00 0.00 76 1010.9
20260505113020 11 58 4.8 8.0 0.00 0.00 0.00 76 1009.9
20260505112557 11 76 3.2 4.8 0.00 0.00 0.00 77 1010.6
20260505112539 11 66 3.2 6.4 0.00 0.00 0.00 77 1010.9
20260505112056 10 82 8.0 14.5 0.00 0.00 0.00 78 1009.9
20260505111611 10 68 9.7 12.9 0.00 0.00 0.00 79 1010.6
20260505111556 10 64 9.7 11.3 0.00 0.00 0.00 79 1010.6
20260505111024 10 71 11.3 24.1 0.00 0.00 0.00 81 1009.9
20260505110540 9 83 11.3 16.1 0.00 0.00 0.00 82 1010.6
20260505110532 9 72 11.3 17.7 0.00 0.00 0.00 82 1010.6
20260505102137 7 131 4.8 9.7 0.00 0.00 0.00 87 1009.9
20260505101634 7 79 8.0 12.9 0.00 0.00 0.00 88 1010.6
20260505101522 7 85 8.0 12.9 0.00 0.00 0.00 88 1010.9
20260505101025 7 74 1.6 6.4 0.00 0.00 0.00 89 1009.9
20260505100555 6 80 6.4 8.0 0.00 0.00 0.00 89 1010.9
20260505100544 6 78 6.4 8.0 0.00 0.00 0.00 89 1010.9
20260505100021 6 74 3.2 6.4 0.00 0.00 0.00 89 1010.2
20260505095523 6 82 3.2 6.4 0.00 0.00 0.00 89 1010.9
20260505095025 6 81 3.2 6.4 0.00 0.00 0.00 89 1010.2
20260505094520 6 73 4.8 6.4 0.00 0.00 0.00 89 1011.3
20260505094031 6 111 4.8 6.4 0.00 0.00 0.00 89 1010.2
20260505093559 6 122 4.8 6.4 0.00 0.00 0.00 89 1011.3
20260505093533 6 115 4.8 6.4 0.00 0.00 0.00 89 1010.9
20260505093027 6 96 6.4 9.7 0.00 0.00 0.00 89 1010.2
20260505092547 6 108 3.2 6.4 0.00 0.00 0.00 89 1011.3
20260505092521 6 94 3.2 6.4 0.00 0.00 0.00 89 1011.3